Check out our new BloomSky Weather System.

Active alerts

Houston, TX
  Details for Houston, TX River Flood Warning  +1 additional alert
Fort Bend, TX
  Details for Fort Bend, TX River Flood Warning  +1 additional alert


Thunder radar  blitzortung!


Rain radar more information rain snow radar


Visit our other weather sites:

Template documentation
and downloads

And another site



Weather Underground History page Text

Daily Summary for December 09, 2018 Units:  English    Metric   Both
« Previous Day
Next Day »
Daily Weekly Monthly Yearly Custom
  Current: High: Low: Average:
Temperature: 45 °F TemperatureF °F 42.4 °F 44.7 °F
Dew Point: 41.4 °F DewpointF °F 39.9 °F 41.5 °F
Humidity: 87 % Humidity % 85 % 88 %
Wind Speed: 0 mph WindSpeedMPH mph 0 mph 1.6 mph
Wind Gust: 0 mph WindSpeedGustMPH mph - -
Wind:Calm - - WNW
Pressure: 30.35 in PressureIn in 30.19 in -
Precipitation: 0 in      
Historical Graphs
 
 
Tabular Data for December 09, 2018
Time Temperature Dew Point Pressure Wind Wind Speed Wind Gust Humidity Rainfall Rate (Hourly)
TemperatureF °F DewpointF °F PressureIn in Calm     Humidity % HourlyPrecipIn in
00:04 44.2 °F 41.7 °F 30.20 in NW 1 mph 10 mph 91 % 0 in
00:09 44.2 °F 41.7 °F 30.20 in WNW 2 mph 10 mph 91 % 0 in
00:14 44.2 °F 41.7 °F 30.20 in NW 5 mph 10 mph 91 % 0 in
00:19 44.1 °F 41.5 °F 30.20 in WNW 1 mph 9 mph 91 % 0 in
00:24 44.1 °F 41.5 °F 30.20 in NW 1 mph 9 mph 91 % 0 in
00:29 44.1 °F 41.5 °F 30.19 in NNW 1 mph 10 mph 91 % 0 in
00:34 44.1 °F 41.5 °F 30.19 in NW 8 mph 10 mph 91 % 0 in
00:39 43.9 °F 41.4 °F 30.19 in West 1 mph 10 mph 91 % 0 in
00:44 43.9 °F 41.2 °F 30.19 in North 1 mph 10 mph 90 % 0 in
00:49 43.9 °F 41.2 °F 30.19 in NNW 6 mph 13 mph 90 % 0 in
00:54 43.9 °F 41.2 °F 30.19 in WNW 5 mph 13 mph 90 % 0 in
00:59 43.9 °F 40.8 °F 30.20 in NNW 3 mph 13 mph 89 % 0 in
01:04 43.9 °F 40.8 °F 30.20 in NW 3 mph 10 mph 89 % 0 in
01:09 43.9 °F 41.2 °F 30.20 in WNW 6 mph 9 mph 90 % 0 in
01:14 44.1 °F 41 °F 30.20 in NNW 2 mph 8 mph 89 % 0 in
01:19 44.1 °F 41.4 °F 30.20 in NW 1 mph 9 mph 90 % 0 in
01:24 44.1 °F 41.4 °F 30.20 in NW 4 mph 9 mph 90 % 0 in
01:29 43.9 °F 40.8 °F 30.21 in WNW 7 mph 9 mph 89 % 0 in
01:34 43.9 °F 40.8 °F 30.20 in WNW 6 mph 10 mph 89 % 0 in
01:39 43.9 °F 40.8 °F 30.20 in North 2 mph 11 mph 89 % 0 in
01:44 43.9 °F 40.8 °F 30.20 in NNW 5 mph 11 mph 89 % 0 in
01:49 43.9 °F 40.6 °F 30.20 in NNW 1 mph 11 mph 88 % 0 in
01:54 43.7 °F 40.5 °F 30.21 in West 2 mph 10 mph 88 % 0 in
01:59 43.7 °F 40.6 °F 30.21 in NW 6 mph 10 mph 89 % 0 in
02:04 43.5 °F 40.5 °F 30.20 in NW 5 mph 10 mph 89 % 0 in
02:09 43.5 °F 40.5 °F 30.21 in NNW 2 mph 10 mph 89 % 0 in
02:14 43.5 °F 40.5 °F 30.21 in WSW 3 mph 10 mph 89 % 0 in
02:19 43.5 °F 40.5 °F 30.21 in WNW 6 mph 10 mph 89 % 0 in
02:24 43.5 °F 40.8 °F 30.21 in NNW 6 mph 11 mph 90 % 0 in
02:29 43.3 °F 40.6 °F 30.20 in NW 6 mph 11 mph 90 % 0 in
02:34 43.2 °F 40.6 °F 30.20 in NW 5 mph 14 mph 91 % 0 in
02:39 43.2 °F 40.6 °F 30.20 in NW 6 mph 14 mph 91 % 0 in
02:44 43 °F 40.5 °F 30.20 in NNW 5 mph 14 mph 91 % 0 in
02:49 43 °F 40.5 °F 30.21 in NW 2 mph 10 mph 91 % 0 in
02:54 43 °F 40.8 °F 30.21 in WNW 4 mph 11 mph 92 % 0 in
02:59 43 °F 40.8 °F 30.21 in WNW 2 mph 11 mph 92 % 0 in
03:04 43 °F 40.8 °F 30.21 in WNW 3 mph 11 mph 92 % 0 in
03:09 43 °F 40.5 °F 30.21 in NW 2 mph 8 mph 91 % 0 in
03:14 42.8 °F 40.3 °F 30.21 in NW 2 mph 8 mph 91 % 0 in
03:19 42.8 °F 40.3 °F 30.21 in NNW 6 mph 8 mph 91 % 0 in
03:24 42.8 °F 40.3 °F 30.21 in NW 4 mph 10 mph 91 % 0 in
03:29 42.8 °F 40.3 °F 30.22 in North 15 mph 10 mph 91 % 0 in
03:34 42.8 °F 40.3 °F 30.22 in Calm   15 mph 91 % 0 in
03:39 42.8 °F 40.3 °F 30.22 in WNW 4 mph 15 mph 91 % 0 in
03:44 42.8 °F 40.6 °F 30.22 in NW 7 mph 15 mph 92 % 0 in
03:49 42.8 °F 40.6 °F 30.21 in WNW 2 mph 13 mph 92 % 0 in
03:54 42.6 °F 40.5 °F 30.22 in West 2 mph 13 mph 92 % 0 in
03:59 42.6 °F 40.5 °F 30.22 in WNW 3 mph 9 mph 92 % 0 in
04:04 42.6 °F 40.5 °F 30.21 in WNW 6 mph 9 mph 92 % 0 in
04:09 42.6 °F 40.5 °F 30.22 in NNW 6 mph 12 mph 92 % 0 in
04:14 42.6 °F 40.1 °F 30.22 in WNW 3 mph 12 mph 91 % 0 in
04:19 42.6 °F 40.1 °F 30.22 in West 4 mph 12 mph 91 % 0 in
04:24 42.6 °F 40.5 °F 30.22 in WNW 1 mph 12 mph 92 % 0 in
04:29 42.6 °F 40.5 °F 30.22 in NW 6 mph 11 mph 92 % 0 in
04:34 42.4 °F 40.3 °F 30.22 in NNE 1 mph 11 mph 92 % 0 in
04:39 42.4 °F 40.3 °F 30.22 in WNW 5 mph 10 mph 92 % 0 in
04:44 42.4 °F 40.3 °F 30.22 in NW 4 mph 10 mph 92 % 0 in
04:49 42.4 °F 40.3 °F 30.22 in NW 3 mph 12 mph 92 % 0 in
04:54 42.4 °F 40.3 °F 30.22 in WNW 4 mph 12 mph 92 % 0 in
04:59 42.4 °F 40.3 °F 30.22 in NW 3 mph 12 mph 92 % 0 in
05:04 42.4 °F 39.9 °F 30.22 in WNW 3 mph 11 mph 91 % 0 in
05:09 42.6 °F 40.1 °F 30.22 in WNW 3 mph 11 mph 91 % 0 in
05:14 42.6 °F 40.1 °F 30.22 in WNW 4 mph 11 mph 91 % 0 in
05:19 42.6 °F 40.1 °F 30.22 in West 4 mph 11 mph 91 % 0 in
05:24 42.6 °F 40.1 °F 30.22 in NNW 3 mph 10 mph 91 % 0 in
05:29 42.6 °F 40.1 °F 30.22 in NNW 5 mph 11 mph 91 % 0 in
05:34 42.6 °F 40.1 °F 30.22 in WNW 4 mph 11 mph 91 % 0 in
05:39 42.8 °F 40.3 °F 30.22 in NNW 2 mph 11 mph 91 % 0 in
05:44 42.8 °F 40.3 °F 30.23 in NW 2 mph 9 mph 91 % 0 in
05:49 42.8 °F 40.3 °F 30.23 in NNW 3 mph 9 mph 91 % 0 in
05:54 42.8 °F 40.1 °F 30.23 in NW 6 mph 9 mph 90 % 0 in
05:59 42.8 °F 40.1 °F 30.23 in NW 4 mph 15 mph 90 % 0 in
06:04 42.8 °F 40.1 °F 30.23 in WNW 4 mph 15 mph 90 % 0 in
06:09 43 °F 40.5 °F 30.23 in WNW 2 mph 15 mph 91 % 0 in
06:14 43 °F 40.5 °F 30.24 in NW 3 mph 11 mph 91 % 0 in
06:19 43 °F 40.5 °F 30.24 in NW 5 mph 9 mph 91 % 0 in
06:24 43 °F 40.5 °F 30.24 in NNW 3 mph 8 mph 91 % 0 in
06:29 43 °F 40.5 °F 30.24 in NW 2 mph 8 mph 91 % 0 in
06:34 43 °F 40.5 °F 30.24 in NW 2 mph 8 mph 91 % 0 in
06:39 43 °F 40.5 °F 30.24 in Calm   8 mph 91 % 0 in
06:44 43 °F 40.5 °F 30.24 in WNW 4 mph 8 mph 91 % 0 in
06:49 43 °F 40.5 °F 30.25 in WNW 6 mph 7 mph 91 % 0 in
06:54 43 °F 40.5 °F 30.25 in North 1 mph 12 mph 91 % 0 in
06:59 43 °F 40.5 °F 30.25 in WNW 8 mph 12 mph 91 % 0 in
07:04 43 °F 40.5 °F 30.25 in NW 9 mph 12 mph 91 % 0 in
07:09 43 °F 40.5 °F 30.25 in NW 1 mph 12 mph 91 % 0 in
07:14 43 °F 40.8 °F 30.25 in NW 2 mph 12 mph 92 % 0 in
07:19 43 °F 40.5 °F 30.25 in NW 2 mph 12 mph 91 % 0 in
07:24 43 °F 40.5 °F 30.25 in NW 7 mph 11 mph 91 % 0 in
07:29 43 °F 40.3 °F 30.26 in WNW 3 mph 12 mph 90 % 0 in
07:35 42.8 °F 40.1 °F 30.26 in WNW 5 mph 12 mph 90 % 0 in
07:39 43 °F 40.3 °F 30.26 in NW 6 mph 12 mph 90 % 0 in
07:44 42.8 °F 40.1 °F 30.26 in West 3 mph 12 mph 90 % 0 in
07:49 43 °F 40.3 °F 30.26 in NW 3 mph 12 mph 90 % 0 in
07:54 43 °F 40.3 °F 30.27 in NW 4 mph 12 mph 90 % 0 in
07:59 43 °F 40.3 °F 30.27 in NW 2 mph 12 mph 90 % 0 in
08:04 43 °F 40.3 °F 30.27 in NW 3 mph 10 mph 90 % 0 in
08:09 43 °F 40.3 °F 30.27 in WNW 8 mph 11 mph 90 % 0 in
08:14 43.2 °F 40.5 °F 30.27 in NW 5 mph 11 mph 90 % 0 in
08:19 43.2 °F 40.5 °F 30.28 in NNW 6 mph 11 mph 90 % 0 in
08:24 43.2 °F 40.5 °F 30.27 in NW 2 mph 11 mph 90 % 0 in
08:29 43.2 °F 40.1 °F 30.28 in NW 2 mph 10 mph 89 % 0 in
08:34 43.2 °F 40.5 °F 30.28 in NW 3 mph 12 mph 90 % 0 in
08:39 43.3 °F 40.6 °F 30.28 in WNW 2 mph 12 mph 90 % 0 in
08:44 43.5 °F 40.5 °F 30.28 in NW 5 mph 12 mph 89 % 0 in
08:49 43.5 °F 40.5 °F 30.28 in NNW 6 mph 11 mph 89 % 0 in
08:54 43.5 °F 40.5 °F 30.28 in West 5 mph 11 mph 89 % 0 in
08:59 43.7 °F 40.6 °F 30.28 in Calm   11 mph 89 % 0 in
09:04 43.9 °F 40.8 °F 30.29 in NW 3 mph 10 mph 89 % 0 in
09:09 43.9 °F 40.8 °F 30.29 in NW 2 mph 9 mph 89 % 0 in
09:14 43.9 °F 40.8 °F 30.29 in Calm   8 mph 89 % 0 in
09:19 43.9 °F 40.8 °F 30.30 in Calm   10 mph 89 % 0 in
09:24 44.1 °F 41 °F 30.30 in Calm   10 mph 89 % 0 in
09:29 44.1 °F 41 °F 30.30 in NW 1 mph 10 mph 89 % 0 in
09:34 44.1 °F 41 °F 30.30 in Calm   7 mph 89 % 0 in
09:39 44.2 °F 41.2 °F 30.30 in Calm   3 mph 89 % 0 in
09:44 44.2 °F 41.2 °F 30.30 in Calm   3 mph 89 % 0 in
09:49 44.1 °F 41.4 °F 30.30 in Calm   3 mph 90 % 0 in
09:54 44.1 °F 41.4 °F 30.30 in Calm   2 mph 90 % 0 in
09:59 44.1 °F 41.4 °F 30.30 in Calm   2 mph 90 % 0 in
10:04 44.1 °F 41.4 °F 30.30 in Calm   2 mph 90 % 0 in
10:09 44.2 °F 41.5 °F 30.30 in WNW 1 mph 2 mph 90 % 0 in
10:14 44.2 °F 41.5 °F 30.30 in Calm   1 mph 90 % 0 in
10:19 44.2 °F 41.5 °F 30.30 in Calm   1 mph 90 % 0 in
10:24 44.2 °F 41.5 °F 30.30 in Calm   2 mph 90 % 0 in
10:29 44.4 °F 41.7 °F 30.31 in Calm   2 mph 90 % 0 in
10:34 44.4 °F 41.4 °F 30.31 in Calm   2 mph 89 % 0 in
10:39 44.2 °F 41.5 °F 30.31 in Calm   8 mph 90 % 0 in
10:44 44.4 °F 41.7 °F 30.30 in Calm   8 mph 90 % 0 in
10:49 44.8 °F 41.7 °F 30.30 in Calm   8 mph 89 % 0 in
10:54 44.8 °F 42.1 °F 30.31 in Calm   8 mph 90 % 0 in
10:59 44.8 °F 41.4 °F 30.31 in Calm   6 mph 88 % 0 in
11:04 44.8 °F 41.7 °F 30.30 in Calm   7 mph 89 % 0 in
11:09 45 °F 41.9 °F 30.30 in Calm   7 mph 89 % 0 in
11:14 45.1 °F 41.7 °F 30.30 in Calm   7 mph 88 % 0 in
11:19 45 °F 41.5 °F 30.30 in Calm   3 mph 88 % 0 in
11:24 45.1 °F 41.7 °F 30.30 in Calm   6 mph 88 % 0 in
11:29 45.3 °F 41.9 °F 30.30 in Calm   6 mph 88 % 0 in
11:34 45.5 °F 42.1 °F 30.30 in Calm   6 mph 88 % 0 in
11:39 45.7 °F 42.3 °F 30.30 in Calm   1 mph 88 % 0 in
11:44 45.7 °F 42.3 °F 30.29 in Calm   1 mph 88 % 0 in
11:49 45.9 °F 42.3 °F 30.30 in Calm   1 mph 87 % 0 in
11:54 45.9 °F 42.3 °F 30.29 in Calm   1 mph 87 % 0 in
11:59 45.7 °F 42.1 °F 30.29 in Calm   1 mph 87 % 0 in
12:04 45.7 °F 42.1 °F 30.29 in Calm   3 mph 87 % 0 in
12:09 45.3 °F 41.7 °F 30.29 in Calm   3 mph 87 % 0 in
12:14 45.5 °F 42.1 °F 30.29 in Calm   4 mph 88 % 0 in
12:19 45.7 °F 42.1 °F 30.28 in Calm   4 mph 87 % 0 in
12:24 45.9 °F 42.3 °F 30.28 in Calm   4 mph 87 % 0 in
12:29 46 °F 42.6 °F 30.28 in Calm     88 % 0 in
12:34 46 °F 42.4 °F 30.28 in Calm   1 mph 87 % 0 in
12:39 46 °F 42.4 °F 30.27 in Calm   1 mph 87 % 0 in
12:44 46.2 °F 42.3 °F 30.27 in Calm   1 mph 86 % 0 in
12:49 46 °F 42.1 °F 30.27 in Calm   1 mph 86 % 0 in
12:54 46.2 °F 42.3 °F 30.27 in Calm   4 mph 86 % 0 in
12:59 46.2 °F 41.9 °F 30.27 in Calm   4 mph 85 % 0 in
13:04 46.6 °F 42.6 °F 30.27 in Calm   4 mph 86 % 0 in
13:09 46.6 °F 42.3 °F 30.27 in Calm   1 mph 85 % 0 in
13:14 46.6 °F 42.3 °F 30.27 in Calm   1 mph 85 % 0 in
13:19 46.6 °F 42.3 °F 30.27 in Calm   1 mph 85 % 0 in
13:24 46.4 °F 42.1 °F 30.27 in Calm   1 mph 85 % 0 in
13:29 46.8 °F 42.8 °F 30.27 in Calm   1 mph 86 % 0 in
13:34 46.8 °F 42.4 °F 30.26 in Calm   1 mph 85 % 0 in
13:39 46.8 °F 42.4 °F 30.27 in Calm   1 mph 85 % 0 in
13:44 46.8 °F 42.8 °F 30.27 in Calm     86 % 0 in
13:49 46.4 °F 42.1 °F 30.27 in WNW 2 mph   85 % 0 in
13:54 46 °F 41.7 °F 30.27 in Calm   7 mph 85 % 0 in
13:59 46.2 °F 42.3 °F 30.27 in Calm   7 mph 86 % 0 in
14:04 45.9 °F 41.5 °F 30.27 in Calm   7 mph 85 % 0 in
14:09 45.9 °F 41.5 °F 30.27 in Calm   7 mph 85 % 0 in
14:14 46 °F 42.1 °F 30.27 in Calm   7 mph 86 % 0 in
14:19 45.9 °F 41.9 °F 30.27 in Calm   7 mph 86 % 0 in
14:24 46 °F 42.4 °F 30.27 in Calm   5 mph 87 % 0 in
14:29 46 °F 42.1 °F 30.27 in Calm   5 mph 86 % 0 in
14:34 46.2 °F 41.9 °F 30.27 in Calm   5 mph 85 % 0 in
14:39 46.2 °F 41.9 °F 30.27 in Calm   1 mph 85 % 0 in
14:44 46.2 °F 41.9 °F 30.27 in Calm   1 mph 85 % 0 in
14:49 46.4 °F 42.4 °F 30.27 in Calm   1 mph 86 % 0 in
14:54 46.4 °F 42.4 °F 30.27 in Calm   1 mph 86 % 0 in
14:59 46.6 °F 42.6 °F 30.27 in Calm   1 mph 86 % 0 in
15:04 46.6 °F 42.6 °F 30.27 in Calm   1 mph 86 % 0 in
15:09 46.6 °F 42.6 °F 30.27 in Calm     86 % 0 in
15:14 46.6 °F 42.6 °F 30.27 in Calm     86 % 0 in
15:19 46.6 °F 42.6 °F 30.27 in Calm     86 % 0 in
15:24 46.4 °F 42.4 °F 30.27 in Calm   1 mph 86 % 0 in
15:29 46.2 °F 42.3 °F 30.27 in Calm   3 mph 86 % 0 in
15:34 46.2 °F 42.6 °F 30.27 in Calm   3 mph 87 % 0 in
15:39 46.2 °F 42.3 °F 30.27 in Calm   3 mph 86 % 0 in
15:44 46 °F 42.4 °F 30.27 in Calm   2 mph 87 % 0 in
15:49 46 °F 42.4 °F 30.27 in Calm   3 mph 87 % 0 in
15:54 46 °F 42.4 °F 30.27 in Calm   3 mph 87 % 0 in
15:59 46.2 °F 42.8 °F 30.27 in Calm   3 mph 88 % 0 in
16:04 46.2 °F 42.6 °F 30.27 in Calm     87 % 0 in
16:09 46.2 °F 42.6 °F 30.27 in Calm     87 % 0 in
16:14 46 °F 42.4 °F 30.27 in Calm   2 mph 87 % 0 in
16:19 46 °F 42.4 °F 30.27 in Calm   5 mph 87 % 0 in
16:24 46 °F 42.4 °F 30.27 in Calm   6 mph 87 % 0 in
16:29 46.2 °F 42.6 °F 30.28 in Calm   6 mph 87 % 0 in
16:34 46.2 °F 42.6 °F 30.28 in Calm   6 mph 87 % 0 in
16:39 46.2 °F 42.6 °F 30.28 in Calm   1 mph 87 % 0 in
16:44 46.2 °F 42.6 °F 30.28 in Calm   1 mph 87 % 0 in
16:49 46.2 °F 42.6 °F 30.28 in Calm   3 mph 87 % 0 in
16:55 46.6 °F 43 °F 30.28 in Calm   3 mph 87 % 0 in
16:59 46.6 °F 43 °F 30.28 in Calm   3 mph 87 % 0 in
17:04 46.6 °F 42.6 °F 30.29 in Calm   1 mph 86 % 0 in
17:09 46.6 °F 42.6 °F 30.29 in Calm   3 mph 86 % 0 in
17:14 46.6 °F 43 °F 30.29 in Calm   3 mph 87 % 0 in
17:19 46.6 °F 42.6 °F 30.29 in WNW 1 mph 3 mph 86 % 0 in
17:24 46.6 °F 42.6 °F 30.29 in Calm   4 mph 86 % 0 in
17:29 46.6 °F 42.6 °F 30.29 in Calm   4 mph 86 % 0 in
17:34 46.6 °F 42.6 °F 30.29 in Calm   4 mph 86 % 0 in
17:39 46.6 °F 42.6 °F 30.29 in Calm   3 mph 86 % 0 in
17:44 46.6 °F 42.6 °F 30.30 in Calm   3 mph 86 % 0 in
17:49 46.6 °F 42.6 °F 30.29 in Calm   1 mph 86 % 0 in
17:54 46.6 °F 42.6 °F 30.30 in Calm   1 mph 86 % 0 in
17:59 46.6 °F 42.6 °F 30.30 in Calm   1 mph 86 % 0 in
18:04 46.6 °F 42.6 °F 30.30 in Calm     86 % 0 in
18:09 46.6 °F 42.6 °F 30.30 in Calm     86 % 0 in
18:14 46.6 °F 43 °F 30.30 in Calm     87 % 0 in
18:19 46.6 °F 43 °F 30.30 in Calm     87 % 0 in
18:24 46.8 °F 43.2 °F 30.30 in Calm     87 % 0 in
18:29 46.8 °F 43.2 °F 30.31 in Calm     87 % 0 in
18:34 46.6 °F 43 °F 30.31 in Calm     87 % 0 in
18:39 46.8 °F 43.3 °F 30.30 in Calm     88 % 0 in
18:44 46.6 °F 43.2 °F 30.31 in Calm     88 % 0 in
18:49 46.8 °F 43.2 °F 30.31 in Calm     87 % 0 in
18:54 46.8 °F 43.2 °F 30.31 in Calm     87 % 0 in
18:59 46.8 °F 43.2 °F 30.31 in Calm     87 % 0 in
19:04 46.8 °F 43.2 °F 30.31 in Calm     87 % 0 in
19:09 46.8 °F 43.2 °F 30.31 in Calm     87 % 0 in
19:14 46.8 °F 43.2 °F 30.32 in Calm     87 % 0 in
19:19 46.8 °F 43.2 °F 30.32 in Calm     87 % 0 in
19:24 46.8 °F 43.2 °F 30.32 in Calm     87 % 0 in
19:29 46.8 °F 43.2 °F 30.32 in Calm     87 % 0 in
19:34 46.8 °F 43.2 °F 30.32 in Calm     87 % 0 in
19:39 46.8 °F 43.2 °F 30.32 in Calm     87 % 0 in
19:44 46.8 °F 43.2 °F 30.32 in Calm     87 % 0 in
19:49 46.8 °F 43.2 °F 30.33 in Calm     87 % 0 in
19:54 46.8 °F 43.2 °F 30.33 in Calm   1 mph 87 % 0 in
19:59 46.8 °F 43.2 °F 30.33 in Calm   1 mph 87 % 0 in
20:04 46.6 °F 43 °F 30.33 in Calm   1 mph 87 % 0 in
20:09 46.8 °F 43.2 °F 30.33 in Calm     87 % 0 in
20:14 46.8 °F 42.8 °F 30.33 in Calm     86 % 0 in
20:19 46.8 °F 43.2 °F 30.33 in Calm   1 mph 87 % 0 in
20:24 46.8 °F 42.8 °F 30.33 in Calm   1 mph 86 % 0 in
20:29 46.8 °F 42.8 °F 30.33 in Calm   1 mph 86 % 0 in
20:34 46.8 °F 42.8 °F 30.33 in Calm     86 % 0 in
20:39 46.8 °F 42.8 °F 30.33 in Calm     86 % 0 in
20:44 46.8 °F 42.8 °F 30.33 in Calm     86 % 0 in
20:49 46.8 °F 42.8 °F 30.33 in Calm     86 % 0 in
20:54 46.8 °F 42.8 °F 30.33 in Calm     86 % 0 in
20:59 46.8 °F 42.8 °F 30.33 in Calm     86 % 0 in
21:04 46.8 °F 42.8 °F 30.34 in Calm     86 % 0 in
21:09 46.8 °F 42.8 °F 30.34 in Calm     86 % 0 in
21:14 46.8 °F 42.8 °F 30.34 in Calm     86 % 0 in
21:19 46.6 °F 42.6 °F 30.34 in Calm     86 % 0 in
21:24 46.6 °F 42.6 °F 30.34 in Calm     86 % 0 in
21:29 46.4 °F 42.4 °F 30.34 in Calm     86 % 0 in
21:34 46 °F 42.4 °F 30.34 in Calm     87 % 0 in
21:39 45.9 °F 42.3 °F 30.34 in Calm     87 % 0 in
21:44 45.3 °F 41.7 °F 30.35 in Calm     87 % 0 in
21:49 45 °F 41.4 °F 30.35 in Calm     87 % 0 in
Spring, Texas: Villages of Bridgestone
Compliments of Weather Underground - 2.75 mb

Script developed by  Jim McMurry - jmcmurry@mwt.net Adapted for the template by  Wim van der Kuil - Leuven-Template.eu

You find our weather info also at:

UK Metoffice

WeatherCloud

Weather Underground

Mid-South Weather Network

AWEKAS

Citizen Weather Observer Program (CWOP)

HAMweather, WeatherForYou, PWS Weather

Equipment we use:

Weather-station
Davis Vantage Vue

Weather-program
Meteohub

Weather-server
Debian 7.9 x86 (Guest)

Provider
DreamHost

Davis Vantage Vue

Meteohub

Debian 7.9 x86 (Guest)

DreamHost